Location: Newark
(16.3678°N, 77.8722°E)
Time: 20:59:33
(UTC+00:00)

S-56A Canister/Altair - Pass Details

Date: 16 December 2019
Orbit: 634 x 2498 km, 38.9° (Epoch: 21 January)

Event Time Altitude Azimuth Distance (km) Brightness Sun altitude
Rises 00:34:42 0° 221° (SW) 4,066 11.0 -8.4°
Reaches altitude 10° 00:37:07 10° 218° (SW) 3,312 10.6 -7.9°
Maximum altitude 00:45:42 67° 137° (SE) 1,847 9.7 -6.0°
Drops below altitude 10° 00:58:33 10° 58° (ENE) 4,810 12.1 -3.1°
Sets 01:02:47 0° 56° (NE) 5,987 12.6 -2.2°
